cliquez pour ajouter le site Runraid à vos favoris  English version (google)  Retour à l'accueil Ecrire à l'auteur du site Runraid : Michel Jourdan



Les prochaines courses


Les derniers résultats

cliquez pour visualiser la page complète relatant la chronologie des éruptions du Piton de la Fournaise
éruptions Piton de la Fournaise


Ile de La Réunion

 Diagonale des Fous 

Ecrire au créateur du site : Michel Jourdan
Contact


2019-06-01 - Tamponnaise Urban Trail 15km

Pour consulter le palmarès d'un coureur, un clic sur son nom !

Vous avez des remarques, corrections, ... sur ces résultats , un clic sur --> pour me transmettre toute information concernant les classements


Tamponnaise Urban Trail 15km - 2019 : classement des 176 finishers
Place Nom Temps Cat. Club Sexe Clt/cat.
Place Nom Temps Cat. Club Sexe Clt/cat.
1 JASMIN LUDOVIC 00:59:18 SEM CAPP M 243
2 FONTAINE JEREMY 01:01:50 SEM M 307
3 LEBON DAMIEN 01:01:54 SEM ACSGS M 212
4 RIVIERE JEAN DAMIEN 01:02:16 SEM M 285
5 Lallemand Kevin 01:03:19 SEM M 311
6 GUILLAUME BENOIT 01:03:38 V1M M 1 V1M 299
7 PAYET ALEXANDRE 01:03:57 SEM M 6 SEM 338
8 Goeffroy Franck 01:04:59 V2M M 1 V2M 314
9 LOUMAGNE JEAN PASCAL 01:05:14 V1M CASL M 2 V1M 244
10 BARDIERE SONY 01:05:27 JUM M 1 JUM 213
11 Payet David 01:06:06 V1M M 3 V1M 318
12 HOARAU PIERRE 01:06:14 SEM M 7 SEM 228
13 DUBARD EMMANUEL 01:06:36 SEM M 8 SEM 268
14 SADZOUTE RICHARD 01:07:17 V2M RUN ODYSSEA M 2 V2M 239
15 DALLEAU JEAN PIERRE 01:07:18 V1M RUN ODYSSEA M 4 V1M 291
16 LAURET CHRISTOPHE 01:07:37 V1M M 5 V1M 233
17 BeNARD JOHAN 01:07:45 SEM M 9 SEM 294
18 FONTAINE DANIEL 01:07:45 V2M CAPP M 3 V2M 201
19 PAYET YANNICK 01:07:48 V1M M 6 V1M 177
20 SOLE ILPHANNE 01:08:25 SEM OUESTRAIL M 10 SEM 148
21 MAILLOT ROSELYN 01:08:39 V2M M 4 V2M 167
22 DELCHINI ANNE Cecile 01:08:40 SEF COSPI F 1ere F 263
23 RIVIERE MICHAEL 01:08:41 SEM M 11 SEM 296
24 GIGAN BRICE 01:08:49 SEM M 12 SEM 227
25 ATIA ANNE 01:08:58 V1F ADISS F 2 F - 1 V1F 203
26 ESPARON JEAN NOeL 01:09:12 V1M M 7 V1M 158
27 FONTAINE JEAN FRANcOIS 01:09:36 V2M M 5 V2M 242
28 DROZO YANNICK 01:09:54 V1M DA M 8 V1M 240
29 Fays Ulric 01:10:03 SEM M 13 SEM 310
30 LEVENEUR ERIC 01:10:16 V2M M 6 V2M 178
31 DIJOUX JeRoME VINCENT 01:10:42 SEM M 14 SEM 166
32 PAYET AMeDe 01:11:47 V1M COSPI M 9 V1M 173
33 PICARD BRUNO 01:11:58 SEM M 15 SEM 274
34 Leperlier Expedit 01:12:07 V1M M 10 V1M 315
35 LEBIHAN DANIEL 01:12:52 V2M M 7 V2M 170
36 BARDEUR NICOLAS 01:12:52 ESM M 1 ESM 278
37 BARDEUR MICKAEL 01:12:52 V1M M 11 V1M 277
38 Lauret Bryan 01:12:57 JUM M 2 JUM 319
39 PAYET JHONY 01:13:25 V1M M 12 V1M 181
40 LAURET DANIEL 01:13:30 V2M M 8 V2M 161
41 ESPARON LOIC 01:13:57 ESM M 2 ESM 300
42 CORRE OLIVIER 01:13:57 SEM M 16 SEM 229
43 MUSSARD TONY 01:14:40 SEM M 17 SEM 271
44 DIJOUX JONATHAN 01:14:52 SEM M 18 SEM 250
45 LEOCADIE JEAN LOUIS 01:14:56 V2M CAPP M 9 V2M 246
46 TREBEL CARMEL 01:14:56 SEF CAPP F 3 F - 2 SEF 209
47 MUSSARD PASCAL 01:14:58 V1M M 13 V1M 290
48 CHAMAND SULLY 01:15:04 V1M DA M 14 V1M 302
49 DEURVEILLER PASCAL 01:15:14 V2M M 10 V2M 231
50 WEIGEL GHISLAIN 01:15:30 V1M CAPC M 15 V1M 220
51 PAQUIEN MARIE 01:15:34 V2F F 4 F - 1 V2F 165
52 LEFEBVRE THIBAUT 01:15:51 SEM RUN ODYSSEA M 19 SEM 164
53 FONTAINE JULES OLIVIER 01:16:33 SEM M 20 SEM 188
54 Pothin Alain 01:17:03 V1M CAPC M 16 V1M 316
55 TORINIERE BRUNO 01:17:07 V1M CAPP M 17 V1M 247
56 CARO DIDIER 01:17:48 SEM M 21 SEM 223
57 CASSARO FREDERIC 01:17:53 V1M CAPOSS M 18 V1M 254
58 AMPLE LAURENT 01:18:07 V1M ACVSS M 19 V1M 298
59 GIVRAN YANNICK 01:18:11 V1M M 20 V1M 193
60 Alvado Brette Timothee 01:18:12 SEM M 22 SEM 312
61 Dijoux Marie Olivia 01:18:44 V1F CAPC F 5 F - 2 V1F 335
62 Boutevel Franck 01:19:18 V1M M 21 V1M 331
63 MAILLOT HENRICHARLES 01:19:18 V2M M 11 V2M 179
64 PASSAL EVA 01:19:26 SEF COSPI F 6 F - 3 SEF 265
65 RAMIN LAURENT 01:19:37 V1M M 22 V1M 186
66 PRUGNIERES CEDRIC 01:20:08 SEM M 23 SEM 196
67 CARO LAURENT 01:20:09 V1M M 23 V1M 219
68 PALAMA JEAN BAPTISTE 01:20:10 V2M CALS SUD M 12 V2M 289
69 PAYET JEAN ANDRE 01:20:17 V1M M 24 V1M 237
70 FOLIO JEAN WILLY 01:20:27 V1M M 25 V1M 306
71 Sautron Armand 01:20:32 V1M CAPC M 26 V1M 320
72 LAURET VANESSA 01:21:18 SEF F 7 F - 4 SEF 293
73 Picard Josian Henri 01:21:26 V2M M 13 V2M 329
74 BONNET LAURENT 01:21:26 V2M CAPP M 14 V2M 249
75 ETHEVE THIERRY 01:21:51 V1M M 27 V1M 238
76 LE BLEIS GUeNOLe 01:21:53 SEM M 24 SEM 168
77 FILAUMART PATRICK 01:22:03 V2M M 15 V2M 159
78 DIJOUX JEAN JASMIN 01:22:04 V1M CASL M 28 V1M 215
79 PICARD PAUL 01:22:04 V2M M 16 V2M 262
80 PLANTE JACQUES ANDRe 01:22:26 V2M M 17 V2M 232
81 ROBERT CYRIL 01:22:40 V2M CAPOSS M 18 V2M 141
82 GRONDIN DIDIER 01:23:08 V1M M 29 V1M 214
83 NOTZOLD MAHE 01:23:19 SEM COSPI M 25 SEM 287
84 PAYET RUDDY ALEXANDRE 01:23:19 SEM M 26 SEM 286
85 Eleleara Cedrix 01:23:22 V1M M 30 V1M 308
86 HAUCHARD ANTHONY 01:23:40 SEM GAT M 27 SEM 180
87 TIMALAMACOME JEAN NOEL 01:23:43 V3M RUN ODYSSEA M 1 V3M 301
88 FOLIO MICKAeL 01:24:00 SEM M 28 SEM 234
89 CASSANTE JOHAN 01:24:10 SEM M 29 SEM 256
90 BOYER SEBASTIEN 01:24:10 SEM M 30 SEM 142
91 CARO ELINDA 01:24:19 SEF CAPP F 8 F - 5 SEF 303
92 MAILLOT JEAN MICHEL 01:24:46 V2M M 19 V2M 269
93 GEORGET TONY 01:25:07 SEM M 31 SEM 255
94 LEFEVRE PIERRE ETIENNE 01:25:19 V1M DA M 31 V1M 273
95 GRONDIN SANDRA 01:26:35 V1F CAPP F 9 F - 3 V1F 248
96 DIJOUX JOSEPH ALFRED 01:26:45 V3M CAPC M 2 V3M 153
97 FRANcOIS MARA 01:26:51 V2M M 20 V2M 154
98 Aure Patrick 01:26:56 V2M M 21 V2M 317
99 HOARAU SYLVIE 01:27:17 V1F F 10 F - 4 V1F 208
100 SOPHIE MARIE FRANcOISE 01:27:55 V1F F 11 F - 5 V1F 199
101 RAMASSAMY JEAN FRANcOIS 01:28:02 V1M M 32 V1M 245
102 POTHIN VINCENT 01:28:05 SEM M 32 SEM 155
103 Vitry Jean Mickeal 01:28:21 V1M M 33 V1M 334
104 CROUCHIT JULIEN 01:28:46 V2M M 22 V2M 207
105 LALLEMAND PHILIPPE 01:29:15 V2M M 23 V2M 211
106 MEUNIER SABINE 01:29:22 V1F F 12 F - 6 V1F 182
107 MAILLOT NOEL THIERRY 01:29:24 V1M CALS SUD M 34 V1M 221
108 CARIAN MONIQUE 01:30:16 V2F GAT F 13 F - 2 V2F 198
109 PARNY LUCAS 01:30:20 CAM M 1 CAM 160
110 MUSSARD JEAN FRANCOIS 01:30:41 V1M M 35 V1M 276
111 PELLIER MARIE EDINA 01:30:53 V1F F 14 F - 7 V1F 194
112 SIBI JEAN MARC 01:31:10 V3M M 3 V3M 144
113 Duchemann Emile 01:31:10 SEM M 33 SEM 332
114 MUSSARD GUILLAUME 01:31:13 V1M M 36 V1M 187
115 BARDEUR JEROME 01:31:18 SEM M 34 SEM 261
116 MOUSSA ANJARA 01:31:23 V1M M 37 V1M 152
117 CADET FRANCIS 01:31:27 SEM M 35 SEM 176
118 Merlo Remy 01:31:53 V2M M 24 V2M 321
119 CAZOUR JONHY 01:31:54 V2M M 25 V2M 305
120 LE GAL FRANCK 01:32:02 V1M M 38 V1M 150
121 CHANE WOR THY NADIA 01:32:09 V1F F 15 F - 8 V1F 280
122 CASSANTE EMMANUEL 01:32:11 SEM M 36 SEM 257
123 CORRE FREDERIC 01:32:37 V1M M 39 V1M 172
124 MALET CHRISTOPHER 01:33:01 SEM M 37 SEM 192
125 TAOCHY DIDIER 01:33:21 V1M DA M 40 V1M 272
126 SALING MATHIEU 01:33:39 V1M M 41 V1M 151
127 MAILLOT MARIE LISE 01:34:19 V2F F 16 F - 3 V2F 253
128 LORION PAUL 01:34:19 V3M M 4 V3M 251
129 TURPIN ARMAND 01:34:45 V1M M 42 V1M 183
130 ROBERT MARIE CLAUDE 01:35:13 V2F F 17 F - 4 V2F 206
131 RAGOU FLORENCE 01:35:40 V1F F 18 F - 9 V1F 217
132 LALLEMAND JOEL JEAN FRANCOIS 01:36:23 V1M M 43 V1M 162
133 CHERON MATHIEU 01:36:24 SEM M 38 SEM 163
134 FOUCHANGE FReDeRIC 01:36:51 V1M M 44 V1M 226
135 PAYET WILLY 01:36:56 SEM M 39 SEM 205
136 MOUILLA ALEXANDRE 01:37:22 SEM M 40 SEM 169
137 FERREIRA ANTONIO 01:37:23 V1M M 45 V1M 281
138 MAILLOT HANACHE JULIA 01:37:31 SEF F 19 F - 6 SEF 283
139 MURAT FABRICE 01:37:34 SEM M 41 SEM 279
140 SAUPIC JEAN LUC 01:38:55 V2M M 26 V2M 210
141 FONTAINE CLARA 01:39:40 V1F F 20 F - 10 V1F 292
142 GOVINDIN LAURENT 01:40:51 SEM M 42 SEM 282
143 MENANTEAU CORALIE 01:41:05 SEF F 21 F - 7 SEF 258
144 MENANTEAU KeVIN 01:41:06 SEM M 43 SEM 259
145 HOARAU SAMUEL 01:41:15 SEM M 44 SEM 184
146 CORRe JASMINE 01:41:31 V2F F 22 F - 5 V2F 146
147 GAYET OLIVIER 01:41:33 V3M M 5 V3M 191
148 DARTY FREDO 01:41:59 V3M M 6 V3M 174
149 NIVESSE IDA 01:41:59 SEF F 23 F - 8 SEF 197
150 HOARAU FRANCOISE MARIE 01:42:14 V1F F 24 F - 11 V1F 218
151 DAMOUR GREGORY 01:43:17 SEM M 45 SEM 304
152 FONTAINE NATHALIE 01:43:18 V1F F 25 F - 12 V1F 295
153 SEVERIN JOHANN DeSIRe 01:43:18 V1M M 46 V1M 260
154 POTHIN SERGE 01:43:53 V3M M 7 V3M 230
155 ROGER BERTRAND 01:44:23 SEM M 46 SEM 147
156 GIGANT LEBON ALISSON 01:46:30 SEF F 26 F - 9 SEF 145
157 GIGAN YOHANN 01:47:06 JUM CAG M 3 JUM 171
158 DIEZ POMARES ROMUALD 01:47:11 V2M M 27 V2M 156
159 FONTAINE JACK 01:47:49 V3M M 8 V3M 252
160 Gigant Frederic 01:47:52 SEM M 47 SEM 330
161 CASTEL JEAN FRANcOIS 01:48:02 V2M M 28 V2M 236
162 HENNEQUIN JULIEN 01:48:31 V1M M 47 V1M 157
163 ROSALI NATHALIE 01:48:32 V2F F 27 F - 6 V2F 190
164 LOPEZ PHILIPPE 01:48:52 V2M M 29 V2M 266
165 PICARD EVELINE 01:49:24 V1F F 28 F - 13 V1F 225
166 Nasseau Catherine 01:50:17 V1F F 29 F - 14 V1F 309
167 SUZANNE MICKAEL 01:50:19 V1M M 48 V1M 297
168 PAYET GRAZIELLA 01:50:26 V1F F 30 F - 15 V1F 224
169 Lescat Marie 01:51:28 V1F F 31 F - 16 V1F 313
170 BOYER CEDRIC 01:51:48 SEM M 48 SEM 216
171 FERRERE LINE MAY 01:52:15 V2F RUN ODYSSEA F 32 F - 7 V2F 185
172 ABLANCOURT MARIE LISE 01:52:39 V3F CALS SUD F 33 F - 1 V3F 149
173 Ablancourt Jean Emile 01:52:41 V3M CALS SUD M 9 V3M 333
174 ANELARD LINDA 01:57:10 V1F RUN ODYSSEA F 34 F - 17 V1F 200
175 HOARAU LAeTITIA 01:59:20 JUF F 35 F - 1 JUF 275
176 LEVENEUR JEAN PASCAL 02:04:59 V1M M 49 V1M 264


ReferencementCe site est listé dans la catégorie Sport : Sports extrêmes Dictionnaire
| Accueil | La Réunion  Vue du ciel | Météo | Cyclones | Volcan | Cirques de Mafate , Cilaos , Salazie | Photos Randonnées | Randonnées Réunion: Randos Espiègle , Courses montagne | Diagonale des Fous |  Marathon des Sables | Voyages Les stats du site | Fonds écran | Plan du site | Blog de runraid | Galerie photos Sport Réunion |